Weather History for The Dalles, OR

Change the Weather History Date:

Saturday, April 28, 2012

  Actual Average Record
Temperature  
Mean Temperature 60 °F -  
Max Temperature 69 °F 67 °F 91 °F (1968)
Min Temperature 51 °F 45 °F 32 °F (1967)
Degree Days  
Heating Degree Days 6    
Growing Degree Days 10 (Base 50)    
Moisture  
Dew Point 43 °F    
Average Humidity 56    
Maximum Humidity 68    
Minimum Humidity 42    
Precipitation  
Precipitation 0.00 in - - ()
Sea Level Pressure  
Sea Level Pressure 30.20 in    
Wind  
Wind Speed 7 mph (WNW)    
Max Wind Speed 16 mph    
Max Gust Speed 23 mph    
Visibility 10 miles    
Events      
Averages and records for this station are not official NWS values.
T = Trace of Precipitation, MM = Missing Value Source: NWS Daily Summary

Daily Weather History Graph

Daily Weather History Graph

Search for Another Location

Airport:

Trip Planner

Search our weather history database for the weather conditions in past years. The results will help you decide how hot, cold, wet, or windy it might be!

Date:

Astronomy

Apr. 28, 2012 Rise Set
Actual Time 5:56 AM PDT 8:08 PM PDT
Civil Twilight 5:23 AM PDT 8:41 PM PDT
Nautical Twilight 4:43 AM PDT 9:21 PM PDT
Astronomical Twilight 3:58 AM PDT 10:07 PM PDT
Moon 11:40 AM PDT 1:38 AM PDT
Length of Visible Light 15h 17m
Length of Day
14h 12m
Waxing Crescent, 44% of the Moon is Illuminated
Apr 28
Waxing Crescent
Apr 29
First Quarter
May 5
Full
May 12
Last Quarter
May 20
New

Hourly Weather History & Observations

Time (PDT) Temp. Dew Point Humidity Pressure Visibility Wind Dir Wind Speed Gust Speed Precip Events Conditions
12:53 AM 52.0 °F 39.9 °F 63% 30.27 in 10.0 mi Variable 5.8 mph - N/A   Mostly Cloudy
1:53 AM 52.0 °F 39.9 °F 63% 30.27 in 10.0 mi Calm Calm - N/A   Overcast
3:53 AM 51.1 °F 41.0 °F 68% 30.27 in 10.0 mi WSW 4.6 mph - N/A   Overcast
4:53 AM 51.1 °F 41.0 °F 68% 30.27 in 10.0 mi WSW 4.6 mph - N/A   Overcast
5:53 AM 51.1 °F 39.9 °F 66% 30.27 in 10.0 mi WSW 4.6 mph - N/A   Overcast
6:53 AM 51.1 °F 39.9 °F 66% 30.27 in 10.0 mi West 6.9 mph - N/A   Overcast
7:53 AM 54.0 °F 41.0 °F 62% 30.27 in 10.0 mi WNW 5.8 mph - N/A   Mostly Cloudy
8:53 AM 55.0 °F 42.1 °F 62% 30.27 in 10.0 mi Calm Calm - N/A   Scattered Clouds
9:53 AM 55.9 °F 42.1 °F 60% 30.25 in 10.0 mi SW 4.6 mph - N/A   Clear
10:53 AM 60.1 °F 42.1 °F 51% 30.24 in 10.0 mi Calm Calm - N/A   Mostly Cloudy
11:53 AM 63.0 °F 43.0 °F 48% 30.23 in 10.0 mi NNW 10.4 mph - N/A   Mostly Cloudy
12:53 PM 64.9 °F 43.0 °F 45% 30.21 in 10.0 mi NW 13.8 mph 18.4 mph N/A   Clear
1:53 PM 66.9 °F 43.0 °F 42% 30.18 in 10.0 mi NNW 15.0 mph - N/A   Clear
2:53 PM 68.0 °F 44.1 °F 42% 30.16 in 10.0 mi NNW 13.8 mph - N/A   Clear
3:53 PM 68.0 °F 45.0 °F 43% 30.14 in 10.0 mi NW 16.1 mph 23.0 mph N/A   Clear
4:53 PM 66.9 °F 44.1 °F 44% 30.13 in 10.0 mi NW 15.0 mph 21.9 mph N/A   Clear
5:53 PM 66.0 °F 44.1 °F 45% 30.13 in 10.0 mi WNW 15.0 mph 20.7 mph N/A   Clear
6:53 PM 64.0 °F 44.1 °F 48% 30.12 in 10.0 mi WNW 13.8 mph - N/A   Clear
7:53 PM 60.1 °F 44.1 °F 55% 30.13 in 10.0 mi NW 10.4 mph - N/A   Clear
8:53 PM 57.9 °F 44.1 °F 60% 30.14 in 10.0 mi NW 8.1 mph - N/A   Clear
9:53 PM 57.0 °F 44.1 °F 62% 30.14 in 10.0 mi NW 9.2 mph - N/A   Clear
10:53 PM 55.9 °F 44.1 °F 64% 30.14 in 10.0 mi WNW 9.2 mph - N/A   Clear
11:53 PM 55.0 °F 44.1 °F 67% 30.14 in 10.0 mi NNW 11.5 mph - N/A   Clear